Klawock, AK

1:19 PM AKDT on October 21, 2019 (GMT -0800)
Klawock

Weather History for PAKW - September, 2019

Change the Weather History Date:

Sunday, September 22, 2019

  Actual Average Record
Temperature  
Mean Temperature 50 °F -  
Max Temperature 57 °F 55 °F 63 °F (1997)
Min Temperature 46 °F 44 °F 36 °F (2003)
Degree Days  
Heating Degree Days 14    
Moisture  
Dew Point 47 °F    
Average Humidity 86    
Maximum Humidity 93    
Minimum Humidity 67    
Precipitation  
Precipitation 0.11 in - - ()
Sea Level Pressure  
Sea Level Pressure 29.79 in    
Wind  
Wind Speed 4 mph (South)    
Max Wind Speed 7 mph    
Max Gust Speed -    
Visibility 9 miles    
Events Rain    
Averages and records for this station are not official NWS values.
T = Trace of Precipitation, MM = Missing Value Source: NWS Daily Summary

Daily Weather History Graph

Daily Weather History Graph

Search for Another Location

Airport or City:

Astronomy

Sep. 22, 2019 Rise Set
Actual Time 6:37 AM AKDT 6:51 PM AKDT
Civil Twilight 6:00 AM AKDT 7:27 PM AKDT
Nautical Twilight 5:16 AM AKDT 8:11 PM AKDT
Astronomical Twilight 4:30 AM AKDT 8:57 PM AKDT
Moon 11:20 PM AKDT (9/22) 4:03 PM AKDT (9/22)
Length of Visible Light 13h 27m
Length of Day
12h 13m
Last Quarter, 42% of the Moon is Illuminated
Sep 22
Last Quarter
Sep 28
New
Oct 5
First Quarter
Oct 13
Full
Oct 21
Last Quarter

Hourly Weather History & Observations

Time (AKDT) Temp. Dew Point Humidity Pressure Visibility Wind Dir Wind Speed Gust Speed Precip Events Conditions
12:28 AM 51.1 °F 48.9 °F 92% 29.75 in 10.0 mi Calm Calm - 0.01 in   Mostly Cloudy
12:37 AM 51.1 °F 48.0 °F 89% 29.73 in 10.0 mi South 6.9 mph - 0.01 in   Mostly Cloudy
12:53 AM 51.1 °F 48.0 °F 89% 29.73 in 10.0 mi South 5.8 mph - 0.01 in   Scattered Clouds
1:53 AM 50.0 °F 46.9 °F 89% 29.74 in 10.0 mi South 5.8 mph - N/A   Mostly Cloudy
2:53 AM 51.1 °F 48.0 °F 89% 29.73 in 10.0 mi South 6.9 mph - N/A   Mostly Cloudy
3:38 AM 51.1 °F 46.9 °F 86% 29.73 in 10.0 mi South 6.9 mph - N/A   Mostly Cloudy
3:46 AM 51.1 °F 46.9 °F 86% 29.73 in 10.0 mi South 6.9 mph - N/A   Scattered Clouds
3:53 AM 51.1 °F 46.9 °F 86% 29.74 in 10.0 mi South 5.8 mph - N/A   Mostly Cloudy
5:04 AM 50.0 °F 46.9 °F 89% 29.78 in 10.0 mi SSW 4.6 mph - 0.00 in Rain Light Rain
5:25 AM 48.9 °F 46.9 °F 93% 29.78 in 8.0 mi Calm Calm - 0.00 in   Overcast
5:37 AM 50.0 °F 46.9 °F 89% 29.75 in 10.0 mi Calm Calm - 0.00 in   Overcast
5:45 AM 48.9 °F 46.9 °F 93% 29.76 in 9.0 mi Calm Calm - 0.00 in Rain Light Rain
5:51 AM 48.2 °F 46.4 °F 93% 29.76 in 10.0 mi Calm Calm - 0.00 in Rain Light Rain
5:53 AM 48.9 °F 46.9 °F 93% 29.76 in 10.0 mi Calm Calm - 0.00 in   Overcast
6:53 AM 48.9 °F 46.0 °F 90% 29.79 in 10.0 mi South 4.6 mph - N/A   Mostly Cloudy
7:53 AM 51.1 °F 48.0 °F 89% 29.80 in 10.0 mi South 5.8 mph - N/A   Overcast
8:53 AM 52.0 °F 48.9 °F 89% 29.82 in 4.0 mi South 6.9 mph - 0.02 in Rain Light Rain
8:58 AM 52.0 °F 48.9 °F 89% 29.83 in 1.8 mi WSW 6.9 mph - 0.02 in Rain Heavy Rain
9:07 AM 50.0 °F 46.9 °F 89% 29.81 in 1.2 mi Calm Calm - 0.04 in Rain Rain
9:14 AM 48.9 °F 46.0 °F 90% 29.81 in 2.0 mi South 4.6 mph - 0.06 in Rain Rain
9:24 AM 50.0 °F 46.9 °F 89% 29.83 in 8.0 mi SE 5.8 mph - 0.06 in Rain Light Rain
9:53 AM 50.0 °F 46.0 °F 86% 29.81 in 10.0 mi South 5.8 mph - 0.08 in   Overcast
10:53 AM 54.0 °F 48.0 °F 80% 29.82 in 10.0 mi South 4.6 mph - N/A   Mostly Cloudy
12:53 PM 55.9 °F 48.9 °F 77% 29.83 in 10.0 mi South 6.9 mph - N/A   Mostly Cloudy
2:53 PM 55.9 °F 48.9 °F 77% 29.85 in 10.0 mi South 6.9 mph - N/A   Partly Cloudy
3:53 PM 55.9 °F 46.9 °F 72% 29.85 in 10.0 mi SW 5.8 mph - N/A   Mostly Cloudy
4:53 PM 55.9 °F 45.0 °F 67% 29.83 in 10.0 mi SSW 5.8 mph - N/A   Clear
5:53 PM 54.0 °F 46.0 °F 75% 29.83 in 10.0 mi SSE 3.5 mph - N/A   Mostly Cloudy
6:53 PM 50.0 °F 46.0 °F 86% 29.83 in 10.0 mi Calm Calm - N/A   Clear
7:53 PM 50.0 °F 45.0 °F 83% 29.84 in 10.0 mi South 3.5 mph - N/A   Clear
8:53 PM 46.9 °F 44.1 °F 90% 29.80 in 10.0 mi Calm Calm - N/A   Clear
9:53 PM 48.0 °F 45.0 °F 89% 29.80 in 10.0 mi North 3.5 mph - N/A   Mostly Cloudy
11:53 PM 48.9 °F 45.0 °F 86% 29.77 in 10.0 mi NE 3.5 mph - N/A   Overcast